TimeCDT,TemperatureF,Dew PointF,Humidity,Sea Level PressureIn,VisibilityMPH,Wind Direction,Wind SpeedMPH,Gust SpeedMPH,PrecipitationIn,Events,Conditions,WindDirDegrees,DateUTC
12:15 AM,82.8,61.7,49,29.81,10.0,South,19.6,25.3,N/A,,Clear,190,2013-05-27 05:15:00
12:35 AM,82.6,61.7,49,29.81,10.0,South,21.9,27.6,N/A,,Clear,190,2013-05-27 05:35:00
12:55 AM,82.8,62.1,49,29.81,10.0,SSW,21.9,28.8,N/A,,Clear,200,2013-05-27 05:55:00
1:15 AM,82.2,62.6,51,29.81,10.0,South,25.3,34.5,N/A,,Clear,190,2013-05-27 06:15:00
1:35 AM,81.3,62.8,53,29.81,10.0,South,23.0,31.1,N/A,,Clear,180,2013-05-27 06:35:00
1:55 AM,80.8,63.5,56,29.80,10.0,South,25.3,32.2,N/A,,Clear,190,2013-05-27 06:55:00
2:15 AM,80.2,64.2,58,29.80,10.0,South,24.2,33.4,N/A,,Clear,190,2013-05-27 07:15:00
2:35 AM,79.7,64.6,60,29.79,10.0,South,27.6,35.7,N/A,,Clear,190,2013-05-27 07:35:00
2:55 AM,79.0,65.1,62,29.79,10.0,South,24.2,33.4,N/A,,Clear,190,2013-05-27 07:55:00
3:15 AM,78.3,65.3,64,29.79,10.0,South,24.2,33.4,N/A,,Clear,190,2013-05-27 08:15:00
3:35 AM,77.5,65.7,67,29.77,10.0,South,18.4,28.8,N/A,,Clear,190,2013-05-27 08:35:00
3:55 AM,77.0,65.7,68,29.77,10.0,South,19.6,29.9,N/A,,Clear,190,2013-05-27 08:55:00
4:15 AM,76.5,65.7,69,29.77,10.0,South,20.7,26.5,N/A,,Clear,190,2013-05-27 09:15:00
4:35 AM,76.3,65.7,70,29.77,10.0,South,24.2,28.8,N/A,,Clear,190,2013-05-27 09:35:00
4:55 AM,75.6,65.7,71,29.77,10.0,South,18.4,25.3,N/A,,Clear,190,2013-05-27 09:55:00
5:15 AM,75.2,65.7,72,29.77,10.0,SSW,18.4,28.8,N/A,,Clear,200,2013-05-27 10:15:00
5:35 AM,75.2,66.2,73,29.77,10.0,SSW,20.7,25.3,N/A,,Clear,200,2013-05-27 10:35:00
5:55 AM,73.8,65.5,75,29.76,10.0,SSW,18.4,26.5,N/A,,Clear,200,2013-05-27 10:55:00
6:15 AM,73.6,65.5,76,29.76,10.0,SSW,19.6,26.5,N/A,,Clear,200,2013-05-27 11:15:00
6:35 AM,73.0,65.5,77,29.77,10.0,SSW,13.8,20.7,N/A,,Clear,210,2013-05-27 11:35:00
6:55 AM,72.5,65.3,78,29.77,10.0,SSW,10.4,16.1,N/A,,Clear,200,2013-05-27 11:55:00
7:15 AM,72.7,65.3,78,29.78,10.0,SW,5.8,-,N/A,,Clear,230,2013-05-27 12:15:00
7:35 AM,73.4,65.7,77,29.79,10.0,SSW,5.8,-,N/A,,Clear,210,2013-05-27 12:35:00
7:55 AM,75.2,66.2,73,29.79,10.0,SW,5.8,-,N/A,,Clear,230,2013-05-27 12:55:00
8:15 AM,76.1,65.8,70,29.79,10.0,West,6.9,-,N/A,,Clear,260,2013-05-27 13:15:00
8:35 AM,77.5,65.8,67,29.78,10.0,SSW,15.0,19.6,N/A,,Clear,210,2013-05-27 13:35:00
8:55 AM,79.0,65.3,63,29.79,10.0,SSW,16.1,-,N/A,,Clear,210,2013-05-27 13:55:00
9:15 AM,80.8,64.8,58,29.79,10.0,SSW,18.4,24.2,N/A,,Clear,200,2013-05-27 14:15:00
9:35 AM,82.8,64.2,53,29.77,10.0,SSW,18.4,26.5,N/A,,Clear,210,2013-05-27 14:35:00
9:55 AM,84.4,63.0,48,29.77,10.0,SW,18.4,28.8,N/A,,Clear,220,2013-05-27 14:55:00
10:15 AM,86.5,60.3,41,29.77,10.0,SW,19.6,27.6,N/A,,Clear,220,2013-05-27 15:15:00
10:35 AM,87.8,59.0,38,29.76,10.0,SW,23.0,28.8,N/A,,Clear,220,2013-05-27 15:35:00
10:55 AM,89.1,57.7,35,29.75,10.0,SW,19.6,25.3,N/A,,Clear,230,2013-05-27 15:55:00
11:15 AM,90.5,56.7,32,29.75,10.0,SW,20.7,28.8,N/A,,Clear,220,2013-05-27 16:15:00
11:35 AM,91.4,56.7,31,29.74,10.0,SW,16.1,26.5,N/A,,Clear,220,2013-05-27 16:35:00
11:55 AM,92.8,55.8,29,29.73,10.0,SSW,17.3,27.6,N/A,,Clear,210,2013-05-27 16:55:00
12:15 PM,93.9,55.6,27,29.73,10.0,SW,23.0,28.8,N/A,,Clear,230,2013-05-27 17:15:00
12:35 PM,95.4,55.2,26,29.72,10.0,SSW,21.9,32.2,N/A,,Clear,210,2013-05-27 17:35:00
12:55 PM,96.1,53.1,23,29.71,10.0,SSW,19.6,28.8,N/A,,Clear,210,2013-05-27 17:55:00
1:15 PM,97.0,49.8,20,29.71,10.0,SSW,20.7,27.6,N/A,,Clear,210,2013-05-27 18:15:00
1:35 PM,97.5,47.7,18,29.70,10.0,SSW,18.4,31.1,N/A,,Clear,210,2013-05-27 18:35:00
1:55 PM,99.0,43.3,15,29.70,10.0,SSW,21.9,38.0,N/A,,Clear,210,2013-05-27 18:55:00
2:15 PM,99.1,44.2,15,29.69,10.0,SSW,20.7,31.1,N/A,,Clear,200,2013-05-27 19:15:00
2:35 PM,97.9,44.1,16,29.68,10.0,SSW,21.9,32.2,N/A,,Clear,200,2013-05-27 19:35:00
2:55 PM,99.3,44.6,15,29.67,10.0,SSW,25.3,32.2,N/A,,Clear,210,2013-05-27 19:55:00
3:15 PM,100.2,44.6,15,29.66,10.0,SSW,23.0,31.1,N/A,,Clear,200,2013-05-27 20:15:00
3:35 PM,97.9,40.6,14,29.67,10.0,SSW,23.0,28.8,N/A,,Clear,210,2013-05-27 20:35:00
3:55 PM,99.1,42.3,14,29.65,10.0,SSW,21.9,28.8,N/A,,Clear,200,2013-05-27 20:55:00
4:15 PM,100.0,33.4,10,29.64,10.0,SW,20.7,31.1,N/A,,Clear,220,2013-05-27 21:15:00
4:35 PM,101.5,27.1,7,29.63,10.0,SW,19.6,28.8,N/A,,Clear,220,2013-05-27 21:35:00
4:55 PM,102.9,22.6,6,29.63,10.0,SW,24.2,39.1,N/A,,Clear,220,2013-05-27 21:55:00
5:15 PM,100.9,15.1,4,29.63,10.0,WSW,24.2,31.1,N/A,,Clear,240,2013-05-27 22:15:00
5:35 PM,99.5,10.8,4,29.63,10.0,WSW,19.6,29.9,N/A,,Clear,240,2013-05-27 22:35:00
5:55 PM,99.0,7.3,4,29.61,10.0,SW,15.0,32.2,N/A,,Clear,230,2013-05-27 22:55:00
6:15 PM,97.5,7.3,4,29.62,10.0,WSW,19.6,31.1,N/A,,Clear,240,2013-05-27 23:15:00
6:35 PM,96.8,5.5,4,29.62,10.0,WSW,15.0,31.1,N/A,,Clear,240,2013-05-27 23:35:00
6:55 PM,97.9,5.5,4,29.61,10.0,WSW,18.4,28.8,N/A,,Clear,240,2013-05-27 23:55:00
7:15 PM,95.5,4.3,4,29.62,10.0,SW,18.4,23.0,N/A,,Clear,230,2013-05-28 00:15:00
7:35 PM,95.4,3.9,4,29.62,10.0,SW,17.3,23.0,N/A,,Clear,230,2013-05-28 00:35:00
7:55 PM,93.0,9.0,4,29.62,10.0,WSW,10.4,20.7,N/A,,Clear,240,2013-05-28 00:55:00
8:15 PM,90.5,10.9,5,29.63,10.0,SW,6.9,-,N/A,,Clear,230,2013-05-28 01:15:00
8:35 PM,88.0,9.7,5,29.63,10.0,SSW,8.1,-,N/A,,Clear,200,2013-05-28 01:35:00
8:55 PM,87.8,12.9,6,29.65,10.0,South,13.8,19.6,N/A,,Clear,170,2013-05-28 01:55:00
9:15 PM,86.5,54.9,34,29.65,10.0,South,18.4,24.2,N/A,,Clear,180,2013-05-28 02:15:00
9:35 PM,86.5,61.2,42,29.66,10.0,South,20.7,31.1,N/A,,Clear,180,2013-05-28 02:35:00
9:55 PM,85.3,62.2,46,29.66,10.0,South,21.9,-,N/A,,Clear,180,2013-05-28 02:55:00
10:15 PM,84.6,61.7,46,29.67,10.0,South,26.5,32.2,N/A,,Clear,180,2013-05-28 03:15:00
10:35 PM,84.2,63.1,49,29.67,10.0,South,27.6,36.8,N/A,,Clear,190,2013-05-28 03:35:00
10:55 PM,83.1,63.9,52,29.67,10.0,South,21.9,32.2,N/A,,Clear,180,2013-05-28 03:55:00
11:15 PM,82.6,65.5,56,29.68,10.0,South,23.0,29.9,N/A,,Clear,180,2013-05-28 04:15:00
11:35 PM,82.0,65.8,58,29.67,10.0,South,23.0,32.2,N/A,,Clear,190,2013-05-28 04:35:00
11:55 PM,81.3,66.4,60,29.68,10.0,South,24.2,-,N/A,,Clear,190,2013-05-28 04:55:00